Starlink 30271

operational
NORAD ID: 57669 Int'l Des: 2023-124 Owner: SPXS Country: US Constellation: starlink
LEOCIRCULAR

Starlink 30271について

説明を読み込み中...

リアルタイム位置

3D地球を読み込み中...

次回通過

高度履歴

Altitude vs Time

uPlot chart will show altitude changes over time

軌道要素

1 57669U 23124G 25259.38766730 .00000607 00000-0 32664-4 0 9996
2 57669 53.1587 296.6699 0003577 94.8125 265.3284 15.30192320116871
Epoch: Sep 16, 2025 • Age: 41 hours

現在のステータス

高度 477.9 km
速度 7.63 km/s
衛星直下点 46.36°N, 21.58°E
打ち上げ日 Aug 22, 2023
運用期間 2 years
タイプ internet

技術仕様

分類 Payload
質量 730.00 kg
乾燥質量 700.00 kg
総質量 730.00 kg
長さ 0.30 m
直径 4.10 m
スパン 29.00 m
形状 Box + pan
製造者 SPXS
バスタイプ Starlink V2M
フェーズステータス In Orbit
所有者/国 SPXS/US

大規模コンステレーション

Loading constellations...